Flag for U.S.A. Weather past 2 weeks in Clearwater, Florida, U.S.A.

Now
74 °F

Passing clouds.


Feels Like: 71 °F
Forecast: 75 / 83 °F
Wind: 8 mph from Southeast

Location: St. Petersburg / Clearwater International Airport

Current Time: Jun 2, 2015 at 7:44:03 AM

Latest Report: Jun 2, 2015 at 6:53 AM


Visibility: 10 mi

Pressure: 30.00 "Hg

Humidity: 94%

Dew point: 72 °F

Location of ClearwaterLocation

Historic Weather in Clearwater — Graph

°F

Clearwater temperature yesterday

Maximum temperature yesterday: 87 °F (at 4:53 PM)
Minimum temperature yesterday: 72 °F (at 4:53 AM)
Average temperature yesterday: 78 °F

Past Weeks' High & Low Weather Summary

 TemperatureHumidityPressure
High93 °F (May 23, 3:53 PM)97% (May 26, 9:53 PM)30.22 "Hg (May 26, 9:53 PM)
Low72 °F (May 19, 6:53 AM)44% (May 25, 5:53 PM)29.95 "Hg (May 20, 6:53 PM)
Average80 °F73%30.09 "Hg
* Reported May 18 5:53 AM — Jun 2 5:53 AM, Clearwater, Weather by CustomWeather, © 2015

Note: Actual official high and low records may vary slightly from our data, if they occured in-between our weather recording intervals... More about our weather records

Advertising

Clearwater weather history for previous 24 hours

 ConditionsComfort  
Time TempWeatherWind HumidityBarometerVisibility
5:53 AM
Tue, Jun 2
73 °FPassing clouds.3 mph94%29.99 "Hg10 mi
4:53 AM73 °FPassing clouds.7 mph94%29.98 "Hg10 mi
3:53 AM74 °FClear.6 mph91%29.98 "Hg10 mi
2:53 AM73 °FClear.7 mph94%29.98 "Hg10 mi
1:53 AM73 °FClear.6 mph90%30.00 "Hg10 mi
12:53 AM73 °FClear.5 mph90%30.03 "Hg10 mi
11:53 PM
Mon, Jun 1
72 °FClear.No wind93%30.05 "Hg10 mi
10:53 PM75 °FPassing clouds.6 mph82%30.07 "Hg10 mi
10:00 PM75 °FThundershowers. Passing clouds.7 mph82%30.08 "Hg10 mi
8:53 PM80 °FMostly cloudy.5 mph79%30.05 "Hg10 mi
7:53 PM82 °FBroken clouds.8 mph74%30.02 "Hg10 mi
6:53 PM84 °FPassing clouds.12 mph70%29.98 "Hg10 mi
5:53 PM86 °FSunny.14 mph65%29.98 "Hg10 mi
4:53 PM87 °FSunny.12 mph65%29.99 "Hg10 mi
3:53 PM83 °FBroken clouds.3 mph65%29.99 "Hg10 mi
2:58 PM77 °FStrong thunderstorms. Mostly cloudy.15 mph85%30.03 "Hg1 mi
1:53 PM85 °FOvercast.3 mph70%30.04 "Hg10 mi
12:53 PM86 °FThundershowers. Scattered clouds.7 mph70%30.06 "Hg10 mi
11:53 AM83 °FScattered clouds.6 mph79%30.07 "Hg10 mi
10:53 AM84 °FPassing clouds.6 mph67%30.08 "Hg10 mi
9:53 AM81 °FSunny.No wind79%30.08 "Hg10 mi
8:53 AM79 °FPassing clouds.6 mph84%30.07 "Hg10 mi
7:53 AM75 °FSunny.5 mph88%30.06 "Hg10 mi
Weather by CustomWeather, © 2015

See weather overviewHow to use our weather pages